Time,TemperatureF,DewpointF,PressureIn,WindDirection,WindDirectionDegrees,WindSpeedMPH,WindSpeedGustMPH,Humidity,HourlyPrecipIn,Conditions,Clouds,dailyrainin,SoftwareType,DateUTC
2013-07-14 00:02:00,83.0,58.0,29.75,WSW,243,1.0,3.0,43,0.00,,,0.00,,2013-07-14 05:02:00,
2013-07-14 00:11:00,84.0,59.0,29.75,West,261,1.0,3.0,43,0.00,,,0.00,,2013-07-14 05:11:00,
2013-07-14 00:23:00,83.0,59.0,29.76,SW,235,0.0,5.0,44,0.00,,,0.00,,2013-07-14 05:23:00,
2013-07-14 00:32:00,83.0,59.0,29.76,SW,235,0.0,5.0,44,0.00,,,0.00,,2013-07-14 05:32:00,
2013-07-14 00:43:00,83.0,59.0,29.76,WSW,243,1.0,3.0,45,0.00,,,0.00,,2013-07-14 05:43:00,
2013-07-14 00:53:00,83.0,61.0,29.76,WSW,240,2.0,4.0,47,0.00,,,0.00,,2013-07-14 05:53:00,
2013-07-14 01:01:00,83.0,61.0,29.76,WSW,240,2.0,4.0,47,0.00,,,0.00,,2013-07-14 06:01:00,
2013-07-14 01:11:00,83.0,61.0,29.76,SSW,207,1.0,5.0,48,0.00,,,0.00,,2013-07-14 06:11:00,
2013-07-14 01:22:00,83.0,62.0,29.77,South,191,1.0,4.0,49,0.00,,,0.00,,2013-07-14 06:22:00,
2013-07-14 01:32:00,83.0,62.0,29.77,South,191,1.0,4.0,49,0.00,,,0.00,,2013-07-14 06:32:00,
2013-07-14 01:42:00,83.0,62.0,29.77,SW,223,2.0,6.0,49,0.00,,,0.00,,2013-07-14 06:42:00,
2013-07-14 01:53:00,83.0,62.0,29.77,WSW,252,2.0,5.0,50,0.00,,,0.00,,2013-07-14 06:53:00,
2013-07-14 02:02:00,83.0,62.0,29.77,WSW,252,2.0,5.0,50,0.00,,,0.00,,2013-07-14 07:02:00,
2013-07-14 02:12:00,82.0,62.0,29.77,WSW,252,1.0,4.0,51,0.00,,,0.00,,2013-07-14 07:12:00,
2013-07-14 02:22:00,82.0,63.0,29.76,SW,235,2.0,3.0,52,0.00,,,0.00,,2013-07-14 07:22:00,
2013-07-14 02:33:00,82.0,63.0,29.76,SW,235,2.0,3.0,52,0.00,,,0.00,,2013-07-14 07:33:00,
2013-07-14 02:43:00,81.0,62.0,29.76,West,279,1.0,4.0,53,0.00,,,0.00,,2013-07-14 07:43:00,
2013-07-14 02:53:00,81.0,63.0,29.75,SW,228,1.0,5.0,54,0.00,,,0.00,,2013-07-14 07:53:00,
2013-07-14 03:01:00,81.0,63.0,29.75,SW,228,1.0,5.0,54,0.00,,,0.00,,2013-07-14 08:01:00,
2013-07-14 03:11:00,81.0,63.0,29.75,West,270,1.0,5.0,55,0.00,,,0.00,,2013-07-14 08:11:00,
2013-07-14 03:22:00,80.0,62.0,29.75,SW,236,0.0,4.0,55,0.00,,,0.00,,2013-07-14 08:22:00,
2013-07-14 03:32:00,80.0,62.0,29.75,SW,236,0.0,4.0,55,0.00,,,0.00,,2013-07-14 08:32:00,
2013-07-14 03:42:00,80.0,62.0,29.75,WSW,247,1.0,6.0,55,0.00,,,0.00,,2013-07-14 08:42:00,
2013-07-14 03:53:00,80.0,63.0,29.75,SW,225,1.0,5.0,56,0.00,,,0.00,,2013-07-14 08:53:00,
2013-07-14 04:01:00,80.0,63.0,29.75,SW,225,1.0,5.0,56,0.00,,,0.00,,2013-07-14 09:01:00,
2013-07-14 04:11:00,80.0,63.0,29.75,South,174,0.0,4.0,57,0.00,,,0.00,,2013-07-14 09:11:00,
2013-07-14 04:22:00,79.0,63.0,29.75,WSW,238,0.0,3.0,59,0.00,,,0.00,,2013-07-14 09:22:00,
2013-07-14 04:32:00,79.0,63.0,29.75,WSW,238,0.0,3.0,59,0.00,,,0.00,,2013-07-14 09:32:00,
2013-07-14 04:42:00,79.0,64.0,29.75,SE,145,0.0,1.0,60,0.00,,,0.00,,2013-07-14 09:42:00,
2013-07-14 04:52:00,79.0,64.0,29.75,SW,214,0.0,1.0,60,0.00,,,0.00,,2013-07-14 09:52:00,
2013-07-14 05:01:00,79.0,64.0,29.75,SW,214,0.0,1.0,60,0.00,,,0.00,,2013-07-14 10:01:00,
2013-07-14 05:11:00,78.0,63.0,29.75,NE,46,0.0,1.0,61,0.00,,,0.00,,2013-07-14 10:11:00,
2013-07-14 05:21:00,78.0,64.0,29.74,SSW,193,0.0,2.0,62,0.00,,,0.00,,2013-07-14 10:21:00,
2013-07-14 05:32:00,78.0,64.0,29.74,SSW,193,0.0,2.0,62,0.00,,,0.00,,2013-07-14 10:32:00,
2013-07-14 05:42:00,77.0,63.0,29.74,SSE,162,0.0,3.0,63,0.00,,,0.00,,2013-07-14 10:42:00,
2013-07-14 05:53:00,78.0,64.0,29.75,South,186,0.0,2.0,62,0.00,,,0.00,,2013-07-14 10:53:00,
2013-07-14 06:01:00,78.0,64.0,29.75,South,186,0.0,2.0,62,0.00,,,0.00,,2013-07-14 11:01:00,
2013-07-14 06:11:00,77.0,63.0,29.74,WSW,246,0.0,2.0,61,0.00,,,0.00,,2013-07-14 11:11:00,
2013-07-14 06:21:00,77.0,63.0,29.74,WSW,246,1.0,5.0,63,0.00,,,0.00,,2013-07-14 11:21:00,
2013-07-14 06:32:00,77.0,63.0,29.74,WSW,246,1.0,5.0,63,0.00,,,0.00,,2013-07-14 11:32:00,
2013-07-14 06:43:00,77.0,64.0,29.74,WSW,248,1.0,2.0,64,0.00,,,0.00,,2013-07-14 11:43:00,
2013-07-14 06:53:00,76.0,64.0,29.74,West,262,0.0,3.0,66,0.00,,,0.00,,2013-07-14 11:53:00,
2013-07-14 07:02:00,76.0,64.0,29.74,West,262,0.0,3.0,66,0.00,,,0.00,,2013-07-14 12:02:00,
2013-07-14 07:11:00,75.0,64.0,29.75,WSW,242,0.0,1.0,68,0.00,,,0.00,,2013-07-14 12:11:00,
2013-07-14 07:22:00,75.0,64.0,29.75,SSW,194,0.0,1.0,68,0.00,,,0.00,,2013-07-14 12:22:00,
2013-07-14 07:32:00,75.0,64.0,29.75,SSW,194,0.0,1.0,68,0.00,,,0.00,,2013-07-14 12:32:00,
2013-07-14 07:43:00,76.0,65.0,29.75,WSW,249,0.0,2.0,68,0.00,,,0.00,,2013-07-14 12:43:00,
2013-07-14 07:52:00,78.0,66.0,29.75,SW,228,0.0,3.0,66,0.00,,,0.00,,2013-07-14 12:52:00,
2013-07-14 08:01:00,78.0,66.0,29.75,SW,228,0.0,3.0,66,0.00,,,0.00,,2013-07-14 13:01:00,
2013-07-14 08:11:00,80.0,67.0,29.75,NNE,29,0.0,2.0,65,0.00,,,0.00,,2013-07-14 13:11:00,
2013-07-14 08:32:00,82.0,68.0,29.75,SSW,200,0.0,1.0,62,0.00,,,0.00,,2013-07-14 13:32:00,
2013-07-14 08:42:00,83.0,68.0,29.75,West,260,0.0,3.0,61,0.00,,,0.00,,2013-07-14 13:42:00,
2013-07-14 10:01:00,88.0,68.0,29.76,SW,232,0.0,5.0,51,0.00,,,0.00,,2013-07-14 15:01:00,
2013-07-14 10:12:00,90.0,67.0,29.76,WNW,293,1.0,4.0,47,0.00,,,0.00,,2013-07-14 15:12:00,
2013-07-14 10:32:00,91.0,67.0,29.76,South,190,0.0,4.0,45,0.00,,,0.00,,2013-07-14 15:32:00,
2013-07-14 10:42:00,92.0,63.0,29.77,ESE,117,1.0,3.0,39,0.00,,,0.00,,2013-07-14 15:42:00,
2013-07-14 10:53:00,91.0,63.0,29.77,NW,306,0.0,4.0,40,0.00,,,0.00,,2013-07-14 15:53:00,
2013-07-14 11:01:00,91.0,63.0,29.77,NW,306,0.0,4.0,40,0.00,,,0.00,,2013-07-14 16:01:00,
2013-07-14 11:11:00,92.0,63.0,29.77,SW,226,1.0,5.0,39,0.00,,,0.00,,2013-07-14 16:11:00,
2013-07-14 11:22:00,94.0,62.0,29.77,WSW,252,0.0,5.0,35,0.00,,,0.00,,2013-07-14 16:22:00,
2013-07-14 11:32:00,94.0,62.0,29.77,WSW,252,0.0,5.0,35,0.00,,,0.00,,2013-07-14 16:32:00,
2013-07-14 11:43:00,95.0,62.0,29.77,South,174,0.0,5.0,34,0.00,,,0.00,,2013-07-14 16:43:00,
2013-07-14 11:53:00,95.0,60.0,29.77,West,266,0.0,4.0,32,0.00,,,0.00,,2013-07-14 16:53:00,
2013-07-14 12:02:00,95.0,60.0,29.77,West,266,0.0,4.0,32,0.00,,,0.00,,2013-07-14 17:02:00,
2013-07-14 12:11:00,96.0,61.0,29.76,SW,229,1.0,6.0,32,0.00,,,0.00,,2013-07-14 17:11:00,
2013-07-14 12:22:00,98.0,62.0,29.76,West,260,0.0,4.0,31,0.00,,,0.00,,2013-07-14 17:22:00,
2013-07-14 12:32:00,98.0,62.0,29.76,West,260,0.0,4.0,31,0.00,,,0.00,,2013-07-14 17:32:00,
2013-07-14 12:43:00,98.0,61.0,29.76,South,187,0.0,4.0,30,0.00,,,0.00,,2013-07-14 17:43:00,
2013-07-14 12:53:00,97.0,60.0,29.75,WSW,250,1.0,5.0,30,0.00,,,0.00,,2013-07-14 17:53:00,
2013-07-14 13:01:00,97.0,60.0,29.75,WSW,250,1.0,5.0,30,0.00,,,0.00,,2013-07-14 18:01:00,
2013-07-14 13:11:00,96.0,59.0,29.74,SE,128,4.0,7.0,30,0.00,,,0.00,,2013-07-14 18:11:00,
2013-07-14 13:21:00,94.0,59.0,29.74,SE,135,4.0,6.0,31,0.00,,,0.00,,2013-07-14 18:21:00,
2013-07-14 13:32:00,94.0,59.0,29.74,SE,135,4.0,6.0,31,0.00,,,0.00,,2013-07-14 18:32:00,
2013-07-14 13:42:00,93.0,61.0,29.73,SSE,162,9.0,16.0,35,0.00,,,0.00,,2013-07-14 18:42:00,
2013-07-14 14:32:00,85.0,64.0,29.75,ESE,110,10.0,18.0,49,0.00,,,0.00,,2013-07-14 19:32:00,
2013-07-14 14:43:00,85.0,64.0,29.77,East,91,5.0,11.0,50,0.00,,,0.00,,2013-07-14 19:43:00,
2013-07-14 15:01:00,82.0,66.0,29.78,ENE,75,2.0,4.0,59,0.00,,,0.00,,2013-07-14 20:01:00,
2013-07-14 15:11:00,77.0,69.0,29.79,ENE,63,0.0,4.0,76,0.01,,,0.01,,2013-07-14 20:11:00,
2013-07-14 15:32:00,76.0,70.0,29.79,ESE,117,2.0,5.0,81,0.03,,,0.03,,2013-07-14 20:32:00,
2013-07-14 15:43:00,78.0,69.0,29.78,SE,138,2.0,6.0,74,0.03,,,0.03,,2013-07-14 20:43:00,
2013-07-14 16:01:00,81.0,69.0,29.77,SE,134,4.0,7.0,67,0.03,,,0.03,,2013-07-14 21:01:00,
2013-07-14 16:11:00,83.0,67.0,29.75,SSE,156,8.0,16.0,59,0.02,,,0.03,,2013-07-14 21:11:00,
2013-07-14 16:22:00,83.0,67.0,29.75,SSE,156,8.0,16.0,59,0.02,,,0.03,,2013-07-14 21:22:00,
2013-07-14 16:32:00,85.0,67.0,29.75,South,191,6.0,13.0,55,0.00,,,0.03,,2013-07-14 21:32:00,
2013-07-14 16:43:00,84.0,67.0,29.73,SE,138,8.0,16.0,57,0.00,,,0.03,,2013-07-14 21:43:00,
2013-07-14 16:52:00,84.0,67.0,29.73,SE,138,8.0,16.0,57,0.00,,,0.03,,2013-07-14 21:52:00,
2013-07-14 17:01:00,84.0,69.0,29.73,SSE,159,6.0,16.0,60,0.00,,,0.03,,2013-07-14 22:01:00,
2013-07-14 17:11:00,84.0,68.0,29.73,SE,131,7.0,14.0,58,0.00,,,0.03,,2013-07-14 22:11:00,
2013-07-14 17:22:00,84.0,68.0,29.73,SE,131,7.0,14.0,58,0.00,,,0.03,,2013-07-14 22:22:00,
2013-07-14 17:32:00,82.0,67.0,29.74,WSW,245,3.0,13.0,61,0.00,,,0.03,,2013-07-14 22:32:00,
2013-07-14 17:42:00,81.0,67.0,29.72,SSE,159,5.0,11.0,63,0.00,,,0.03,,2013-07-14 22:42:00,
2013-07-14 18:01:00,81.0,67.0,29.72,SSE,154,4.0,10.0,62,0.00,,,0.03,,2013-07-14 23:01:00,
2013-07-14 18:11:00,81.0,66.0,29.72,SE,127,6.0,14.0,61,0.00,,,0.03,,2013-07-14 23:11:00,
2013-07-14 18:22:00,81.0,66.0,29.72,SE,127,6.0,14.0,61,0.00,,,0.03,,2013-07-14 23:22:00,
2013-07-14 18:32:00,81.0,67.0,29.72,South,179,5.0,14.0,63,0.00,,,0.03,,2013-07-14 23:32:00,
2013-07-14 18:42:00,81.0,68.0,29.72,SE,142,7.0,14.0,64,0.00,,,0.03,,2013-07-14 23:42:00,
2013-07-14 18:53:00,81.0,68.0,29.72,SE,142,7.0,14.0,64,0.00,,,0.03,,2013-07-14 23:53:00,
2013-07-14 19:02:00,81.0,69.0,29.72,SE,136,7.0,15.0,66,0.00,,,0.03,,2013-07-15 00:02:00,
2013-07-14 19:11:00,80.0,68.0,29.72,SSE,157,6.0,18.0,66,0.00,,,0.03,,2013-07-15 00:11:00,
2013-07-14 19:22:00,80.0,68.0,29.72,SSE,157,6.0,18.0,66,0.00,,,0.03,,2013-07-15 00:22:00,
2013-07-14 19:32:00,81.0,69.0,29.72,SSE,160,4.0,14.0,66,0.00,,,0.03,,2013-07-15 00:32:00,
2013-07-14 19:43:00,80.0,67.0,29.72,SSW,212,4.0,15.0,65,0.00,,,0.03,,2013-07-15 00:43:00,
2013-07-14 19:53:00,80.0,67.0,29.72,SSW,212,4.0,15.0,65,0.00,,,0.03,,2013-07-15 00:53:00,
2013-07-14 20:01:00,80.0,68.0,29.72,SW,215,7.0,14.0,67,0.00,,,0.03,,2013-07-15 01:01:00,
2013-07-14 20:11:00,80.0,68.0,29.72,SSE,156,4.0,11.0,68,0.00,,,0.03,,2013-07-15 01:11:00,
2013-07-14 20:22:00,80.0,68.0,29.72,SSE,156,4.0,11.0,68,0.00,,,0.03,,2013-07-15 01:22:00,
2013-07-14 20:32:00,79.0,68.0,29.72,SW,226,4.0,14.0,68,0.00,,,0.03,,2013-07-15 01:32:00,
2013-07-14 20:43:00,79.0,69.0,29.72,WSW,252,2.0,8.0,72,0.00,,,0.03,,2013-07-15 01:43:00,
2013-07-14 20:53:00,79.0,69.0,29.72,WSW,252,2.0,8.0,72,0.00,,,0.03,,2013-07-15 01:53:00,
2013-07-14 21:02:00,78.0,67.0,29.73,SW,229,2.0,8.0,70,0.00,,,0.03,,2013-07-15 02:02:00,
2013-07-14 21:11:00,78.0,68.0,29.73,SSW,211,3.0,12.0,71,0.00,,,0.03,,2013-07-15 02:11:00,
2013-07-14 21:22:00,78.0,68.0,29.73,SSW,211,3.0,12.0,71,0.00,,,0.03,,2013-07-15 02:22:00,
2013-07-14 21:32:00,77.0,67.0,29.73,WSW,252,3.0,10.0,71,0.00,,,0.03,,2013-07-15 02:32:00,
2013-07-14 21:42:00,76.0,67.0,29.74,SSW,210,5.0,11.0,73,0.00,,,0.03,,2013-07-15 02:42:00,
2013-07-14 21:53:00,76.0,67.0,29.74,SSW,210,5.0,11.0,73,0.00,,,0.03,,2013-07-15 02:53:00,
2013-07-14 22:02:00,76.0,67.0,29.75,SW,229,3.0,7.0,75,0.00,,,0.03,,2013-07-15 03:02:00,
2013-07-14 22:11:00,75.0,67.0,29.75,SSW,194,2.0,6.0,76,0.00,,,0.03,,2013-07-15 03:11:00,
2013-07-14 22:21:00,75.0,67.0,29.75,SSW,194,2.0,6.0,76,0.00,,,0.03,,2013-07-15 03:21:00,
2013-07-14 22:32:00,75.0,67.0,29.74,WSW,243,3.0,8.0,77,0.00,,,0.03,,2013-07-15 03:32:00,
2013-07-14 22:43:00,75.0,68.0,29.75,SW,218,1.0,6.0,78,0.00,,,0.03,,2013-07-15 03:43:00,
2013-07-14 22:53:00,75.0,68.0,29.75,SW,218,1.0,6.0,78,0.00,,,0.03,,2013-07-15 03:53:00,
2013-07-14 23:01:00,75.0,68.0,29.75,SSW,195,1.0,8.0,78,0.00,,,0.03,,2013-07-15 04:01:00,
2013-07-14 23:11:00,75.0,68.0,29.77,ESE,120,2.0,6.0,78,0.00,,,0.03,,2013-07-15 04:11:00,
2013-07-14 23:22:00,75.0,68.0,29.77,ESE,120,2.0,6.0,78,0.00,,,0.03,,2013-07-15 04:22:00,
2013-07-14 23:32:00,75.0,67.0,29.78,SE,145,4.0,7.0,77,0.00,,,0.03,,2013-07-15 04:32:00,
2013-07-14 23:42:00,75.0,67.0,29.78,SE,131,2.0,8.0,77,0.00,,,0.03,,2013-07-15 04:42:00,
2013-07-14 23:53:00,75.0,67.0,29.78,SE,131,2.0,8.0,77,0.00,,,0.03,,2013-07-15 04:53:00,